Wind_Speed
13 13 13 14 14 14 13 13 13 13 13 13 12 12 12 12 11 11 11 10 10 10 10 9 9 9 8 8 8 7 7 6 6 5 5 4 4 3 3 3 3 2 2
14 14 15 15 15 15 15 14 14 14 14 14 14 14 13 13 12 12 11 11 11 11 10 10 9 9 9 8 8 8 8 7 7 6 6 6 5 5 5 4 4 4 3
15 15 16 16 16 16 16 16 15 15 15 15 14 15 14 14 14 13 13 12 12 12 11 11 11 11 10 9 9 8 8 8 7 7 7 7 7 6 6 5 5 5 5
16 16 16 17 17 17 17 17 16 16 16 16 16 16 15 15 15 15 14 14 14 13 13 13 13 12 12 11 10 10 9 8 8 8 8 8 8 8 7 7 7 7 6
18 18 18 18 17 17 18 18 18 17 17 17 18 17 17 16 16 16 15 15 15 15 15 15 15 14 13 13 12 12 11 10 9 9 10 9 9 9 9 8 8 8 8
20 20 19 19 19 19 19 19 19 18 18 18 19 19 18 18 17 17 17 17 16 16 16 16 16 15 15 14 14 14 13 12 11 11 10 10 10 10 10 10 10 10 10
21 21 20 20 20 20 20 20 20 20 20 20 19 20 20 20 19 19 19 18 18 18 18 17 17 16 16 15 15 15 15 14 13 13 12 11 11 11 11 11 11 11 11
22 22 22 22 21 21 21 21 21 21 21 21 21 21 21 21 21 20 20 20 20 20 19 19 18 18 17 17 16 16 16 15 15 14 14 14 13 13 13 13 13 13 12
24 24 23 23 23 23 23 23 23 23 23 23 23 23 23 23 22 22 22 22 21 20 20 20 20 19 19 19 18 18 17 17 17 16 16 16 15 15 15 15 14 14 14
26 25 25 25 25 25 25 25 25 25 24 24 25 24 24 24 24 24 23 23 23 22 22 22 22 21 20 20 20 20 19 19 19 18 18 18 17 17 17 17 16 16 16
28 27 27 27 26 27 27 27 27 27 27 27 26 26 26 26 26 25 25 25 24 24 24 24 24 24 23 22 22 22 22 21 20 20 20 20 19 19 19 18 18 18 17
29 30 29 29 28 29 29 29 29 29 29 29 28 28 28 28 27 27 26 26 26 26 26 25 25 25 25 24 24 24 24 23 23 22 22 22 22 21 21 20 20 20 19
32 32 31 31 30 30 30 30 31 31 31 30 30 30 30 30 29 29 28 28 28 27 27 27 27 27 27 26 26 26 26 26 25 25 25 24 24 24 23 23 22 22 21
33 33 34 33 32 32 32 32 32 32 32 32 31 31 32 31 31 30 30 30 29 29 29 29 29 29 29 29 28 29 29 28 28 28 27 27 27 26 26 25 25 24 24
35 35 35 35 34 34 33 33 33 33 33 33 32 32 32 32 32 32 32 32 32 31 31 31 31 32 31 31 30 31 30 31 31 30 30 30 29 29 29 28 28 27 27
34 35 35 36 36 35 35 34 34 35 35 34 34 34 33 33 33 33 34 34 34 34 33 33 33 33 34 33 33 33 32 33 33 33 33 33 32 32 31 31 31 30 29
36 36 36 36 36 36 36 36 35 36 36 36 36 36 36 36 36 36 36 35 35 34 35 35 35 34 35 35 35 35 34 34 34 35 35 34 34 34 34 33 33 32 32
36 37 37 37 38 38 38 37 37 37 38 38 38 37 38 39 39 39 38 38 38 37 36 36 37 37 36 36 36 37 37 36 36 36 36 36 36 36 36 35 35 35 34
36 37 37 38 39 39 41 40 40 40 40 39 40 39 40 40 41 41 40 39 39 38 38 38 38 38 38 38 38 38 39 38 38 39 38 38 38 38 38 37 37 37 37
37 37 38 39 40 40 41 42 41 41 41 41 41 41 41 41 41 41 41 41 40 40 40 40 39 39 38 38 39 39 39 39 39 40 40 40 40 40 39 39 39 39 39
38 39 39 38 39 40 41 42 43 43 43 42 42 42 42 42 42 42 42 41 41 41 40 40 40 41 40 40 40 40 41 41 41 41 41 41 41 41 41 41 41 40 40
39 39 39 39 40 40 41 42 43 44 44 44 43 44 43 43 44 43 43 42 42 41 41 42 42 42 43 42 42 42 42 43 43 43 43 43 42 42 42 42 42 42 42
40 40 40 41 41 41 42 43 44 45 45 45 45 45 45 45 45 44 44 43 43 42 42 42 42 43 44 44 44 44 44 44 44 43 44 44 44 44 43 43 43 43 43
41 41 41 42 43 43 43 44 45 45 46 46 46 46 46 46 46 45 45 45 45 44 44 44 44 44 45 45 45 45 46 46 46 45 45 46 46 46 46 46 45 45 45
41 41 42 42 43 44 44 45 45 46 46 46 46 47 47 47 47 46 46 46 46 46 45 45 46 46 46 47 47 47 48 47 47 47 47 47 47 47 47 47 46 46 46
41 42 42 43 43 44 45 46 47 48 47 48 47 47 47 48 48 48 47 47 47 47 47 47 47 48 47 48 48 48 49 49 49 49 49 48 48 49 49 48 47 47 47
Wind_Direction
242 241 239 239 238 238 239 240 240 237 235 235 237 238 237 234 234 236 237 237 239 235 234 236 239 241 242 243 245 248 248 248 247 244 236 236 242 243 246 251 253 250 246
244 244 242 240 238 239 240 240 240 241 241 239 238 238 236 234 236 236 237 239 239 239 238 238 239 240 242 245 247 249 248 246 245 247 245 242 245 246 248 250 255 255 251
245 245 245 242 240 241 242 242 242 244 244 243 240 238 236 236 237 237 237 238 240 241 240 241 241 242 241 243 245 249 249 247 248 249 248 247 247 248 251 254 254 258 257
245 244 245 244 243 244 244 244 243 243 244 243 242 243 240 238 237 239 241 240 240 242 242 242 242 243 243 243 246 249 248 247 249 250 252 253 253 253 255 255 255 257 260
244 244 245 245 245 245 244 244 244 244 244 244 244 244 242 239 240 241 241 242 241 241 242 243 244 244 244 244 244 246 247 246 247 249 250 254 258 258 256 256 256 258 261
244 244 245 246 245 245 245 244 244 245 245 246 246 244 242 242 243 243 243 244 244 244 245 244 244 244 244 243 243 244 246 246 246 249 251 254 257 258 259 258 259 259 260
246 245 245 246 246 246 245 244 243 244 245 246 247 247 246 243 243 245 244 244 245 246 246 245 245 244 243 243 243 244 245 247 247 248 251 254 256 258 260 260 261 262 262
247 246 246 246 247 247 246 246 246 245 246 246 247 249 249 248 247 247 246 245 246 247 247 245 245 246 244 243 244 246 248 249 249 250 252 254 255 257 260 262 261 262 264
248 248 248 247 247 248 246 246 247 247 248 247 247 248 248 248 248 248 248 246 246 247 246 245 245 246 245 246 245 246 248 251 252 253 254 255 256 257 259 261 262 262 263
250 249 248 248 248 248 248 247 248 248 249 248 247 248 248 249 249 249 249 248 248 249 248 246 247 247 246 247 247 247 248 249 250 252 254 256 257 258 259 259 261 262 262
249 249 249 248 248 248 248 248 249 249 250 250 249 248 249 249 249 249 250 251 250 251 250 248 248 248 247 247 248 248 248 249 250 252 254 256 257 258 259 259 260 261 262
250 249 249 249 249 249 249 249 249 250 251 251 251 250 250 249 249 249 250 251 252 253 251 250 249 249 248 248 249 249 249 251 251 252 254 256 257 258 258 259 260 260 261
249 249 249 249 250 250 250 251 251 251 251 251 252 251 251 251 250 250 250 250 252 254 254 253 250 250 249 248 249 250 250 251 252 253 254 256 257 258 258 259 259 260 261
249 248 248 249 249 250 250 251 252 252 252 252 253 252 252 252 251 251 250 250 251 253 254 255 253 252 251 250 250 252 252 253 253 254 254 255 256 257 257 258 258 259 260
249 248 248 248 249 249 250 250 251 252 253 252 253 254 253 252 251 251 250 251 252 253 254 255 254 253 253 253 253 254 255 255 254 255 255 256 256 256 256 257 258 258 259
249 249 248 248 249 249 249 250 251 252 252 252 252 252 252 251 251 252 252 253 254 254 255 255 256 255 253 254 255 255 256 257 256 256 257 256 257 257 257 257 258 258 258
250 249 249 249 248 248 249 249 251 252 252 252 252 252 251 251 252 252 253 253 254 254 254 255 256 256 256 256 256 256 256 257 257 257 258 258 257 258 257 257 257 257 258
251 250 250 249 248 248 249 250 250 252 253 253 253 253 252 252 252 253 254 253 253 254 254 254 255 256 257 257 256 256 256 257 258 258 259 258 258 258 258 258 258 257 258
252 251 251 251 250 249 250 251 251 252 253 254 254 254 254 253 253 253 253 253 253 254 255 255 254 255 256 257 257 257 257 259 259 258 259 259 259 259 258 259 259 259 258
253 252 253 253 251 251 251 251 252 251 253 254 255 255 254 252 253 253 253 253 253 254 255 255 256 256 258 258 258 257 257 259 259 259 259 260 260 260 259 259 259 259 259
253 253 252 252 252 251 251 251 251 252 254 255 254 255 255 254 254 254 253 253 254 254 255 256 257 257 258 259 259 259 258 259 259 260 259 260 260 260 260 260 260 260 260
253 253 251 252 252 252 252 252 253 253 254 253 254 254 254 254 253 254 253 253 254 255 256 257 258 258 258 258 259 259 259 259 260 260 260 261 261 262 262 262 262 262 261
253 253 252 252 252 252 253 252 252 253 253 253 254 254 253 254 254 253 253 254 255 255 256 258 258 258 257 258 259 259 259 259 260 261 261 261 261 261 262 262 262 262 261
253 253 253 253 253 253 253 253 252 252 252 254 254 254 254 255 254 254 254 254 255 256 257 257 257 258 258 258 259 261 261 261 261 261 261 261 261 261 262 262 261 261 261
253 253 253 253 254 253 253 253 253 253 252 253 254 254 254 255 255 254 255 255 256 257 258 257 257 258 259 259 260 261 262 262 263 262 262 261 261 262 263 263 263 262 261
254 254 253 253 253 253 253 254 254 255 254 254 253 253 254 255 255 255 255 256 257 258 258 257 257 258 260 261 261 262 262 262 263 263 262 261 261 262 263 263 263 263 263
Height
5832 5833 5834 5834 5835 5836 5837 5838 5839 5839 5840 5841 5842 5843 5844 5844 5845 5846 5847 5847 5848 5848 5848 5849 5850 5850 5851 5851 5851 5851 5852 5852 5852 5852 5852 5852 5852 5852 5852 5852 5852 5852 5852
5830 5830 5831 5832 5833 5834 5835 5836 5837 5838 5838 5839 5840 5841 5842 5843 5843 5844 5845 5846 5846 5847 5847 5848 5848 5849 5849 5850 5850 5850 5851 5851 5851 5851 5851 5851 5852 5852 5852 5852 5852 5852 5852
5827 5828 5828 5829 5830 5831 5832 5834 5835 5836 5836 5837 5838 5839 5840 5841 5841 5842 5843 5844 5845 5845 5846 5846 5847 5847 5848 5849 5849 5849 5849 5850 5850 5850 5850 5850 5851 5851 5851 5851 5851 5851 5851
5824 5825 5826 5827 5828 5829 5830 5831 5832 5833 5834 5835 5836 5837 5837 5838 5839 5840 5841 5842 5842 5843 5844 5845 5845 5846 5846 5847 5848 5848 5848 5848 5848 5849 5849 5849 5850 5850 5850 5850 5850 5850 5850
5821 5821 5823 5823 5824 5826 5827 5828 5829 5830 5831 5832 5833 5834 5835 5836 5837 5837 5838 5839 5840 5841 5842 5842 5843 5843 5844 5845 5846 5846 5846 5847 5847 5847 5847 5848 5848 5848 5848 5848 5849 5848 5848
5817 5818 5819 5820 5821 5822 5823 5825 5826 5827 5828 5829 5830 5831 5832 5833 5834 5835 5835 5836 5837 5838 5839 5840 5840 5841 5842 5843 5843 5844 5844 5845 5845 5845 5846 5846 5846 5846 5846 5847 5847 5847 5847
5813 5814 5815 5816 5817 5818 5820 5821 5822 5823 5825 5826 5827 5828 5828 5829 5830 5831 5832 5833 5834 5835 5836 5836 5837 5838 5839 5840 5840 5841 5841 5842 5843 5843 5844 5844 5844 5844 5844 5845 5845 5845 5845
5808 5810 5811 5812 5813 5814 5815 5817 5818 5819 5821 5822 5823 5824 5825 5826 5827 5828 5828 5830 5830 5831 5832 5833 5834 5835 5836 5837 5837 5838 5839 5839 5840 5840 5841 5841 5841 5842 5842 5842 5842 5843 5843
5804 5805 5806 5807 5808 5809 5811 5812 5813 5815 5816 5817 5818 5820 5821 5822 5822 5823 5824 5825 5826 5827 5828 5829 5830 5831 5832 5833 5834 5835 5835 5836 5837 5837 5838 5838 5839 5839 5839 5839 5840 5840 5840
5798 5800 5801 5802 5803 5804 5806 5807 5808 5810 5811 5812 5814 5815 5816 5817 5818 5819 5820 5821 5822 5823 5824 5825 5826 5827 5828 5829 5830 5831 5832 5833 5833 5834 5834 5835 5835 5836 5836 5836 5836 5837 5837
5792 5794 5795 5796 5798 5799 5800 5802 5803 5804 5806 5807 5808 5810 5811 5812 5813 5814 5815 5816 5817 5818 5819 5820 5821 5822 5824 5825 5826 5826 5827 5828 5829 5830 5831 5831 5831 5832 5832 5833 5833 5833 5834
5785 5787 5788 5790 5792 5793 5794 5796 5797 5799 5800 5801 5803 5804 5805 5806 5807 5809 5810 5811 5812 5813 5814 5815 5816 5817 5819 5820 5821 5822 5823 5824 5825 5825 5826 5827 5827 5828 5828 5829 5829 5829 5830
5778 5780 5782 5783 5785 5786 5788 5789 5791 5792 5793 5795 5796 5797 5799 5800 5801 5802 5804 5805 5806 5807 5808 5810 5811 5812 5813 5814 5815 5816 5818 5819 5820 5820 5821 5822 5822 5823 5823 5824 5824 5825 5825
5770 5772 5774 5776 5778 5779 5781 5782 5784 5785 5786 5788 5789 5791 5792 5793 5795 5796 5797 5799 5800 5801 5802 5804 5805 5806 5807 5809 5810 5810 5811 5813 5814 5814 5815 5816 5817 5817 5818 5818 5819 5820 5820
5762 5764 5766 5767 5770 5771 5773 5775 5776 5778 5779 5781 5782 5783 5785 5786 5787 5789 5790 5792 5793 5794 5796 5797 5798 5799 5801 5802 5803 5804 5805 5806 5807 5808 5809 5809 5810 5811 5811 5812 5813 5814 5814
5753 5755 5757 5759 5761 5763 5765 5767 5769 5770 5771 5773 5774 5776 5777 5779 5780 5781 5783 5784 5786 5787 5788 5790 5791 5792 5793 5795 5796 5797 5797 5798 5799 5800 5801 5802 5803 5804 5804 5805 5806 5807 5808
5744 5746 5748 5750 5752 5754 5757 5759 5760 5762 5763 5765 5766 5767 5769 5771 5772 5773 5775 5776 5778 5779 5780 5781 5783 5784 5785 5787 5788 5789 5790 5791 5792 5792 5793 5794 5795 5796 5797 5798 5799 5799 5800
5735 5737 5739 5741 5743 5745 5747 5750 5751 5752 5754 5756 5757 5759 5760 5762 5763 5765 5766 5767 5769 5770 5771 5773 5774 5775 5777 5778 5779 5780 5781 5782 5783 5784 5785 5786 5787 5787 5788 5789 5790 5791 5792
5726 5727 5729 5731 5733 5736 5738 5740 5742 5744 5746 5747 5748 5750 5751 5752 5754 5755 5757 5758 5759 5761 5762 5763 5765 5766 5768 5769 5770 5771 5773 5773 5774 5775 5776 5777 5777 5778 5779 5780 5781 5782 5783
5716 5718 5720 5722 5723 5726 5728 5730 5732 5734 5736 5737 5739 5740 5741 5743 5744 5745 5747 5748 5750 5751 5753 5754 5755 5757 5758 5760 5761 5762 5763 5764 5765 5765 5766 5767 5768 5768 5769 5770 5771 5772 5773
5707 5708 5710 5712 5713 5715 5718 5720 5722 5724 5726 5728 5729 5730 5732 5733 5734 5736 5737 5739 5740 5742 5743 5744 5746 5747 5748 5750 5751 5752 5753 5754 5755 5755 5756 5756 5757 5758 5759 5759 5761 5762 5763
5697 5698 5700 5702 5704 5706 5708 5710 5712 5714 5716 5718 5719 5720 5722 5723 5724 5726 5728 5729 5730 5732 5733 5734 5736 5737 5738 5739 5740 5741 5742 5744 5744 5745 5745 5746 5746 5747 5748 5749 5750 5751 5752
5687 5688 5690 5692 5694 5696 5698 5700 5701 5703 5705 5707 5708 5709 5711 5712 5713 5715 5717 5719 5720 5722 5723 5724 5725 5726 5727 5728 5728 5730 5731 5732 5734 5735 5734 5735 5736 5736 5737 5738 5739 5740 5741
5677 5678 5680 5681 5683 5685 5687 5688 5690 5692 5694 5695 5697 5698 5699 5701 5703 5705 5706 5708 5709 5711 5712 5713 5714 5715 5715 5716 5717 5717 5719 5720 5721 5723 5724 5724 5724 5724 5725 5726 5727 5728 5729
5666 5667 5669 5670 5672 5674 5675 5677 5679 5680 5682 5684 5685 5687 5688 5690 5692 5693 5695 5696 5698 5699 5700 5701 5702 5703 5703 5704 5705 5705 5706 5707 5707 5709 5711 5712 5712 5712 5713 5714 5715 5716 5717
5655 5656 5658 5659 5660 5662 5664 5665 5667 5668 5670 5672 5673 5675 5677 5678 5680 5681 5683 5684 5685 5686 5687 5688 5689 5690 5691 5691 5692 5692 5693 5694 5695 5695 5697 5699 5700 5700 5701 5702 5703 5703 5704